Cloud_Cover
84 17 41 46 94 40 5 6 10 3 0 91 58 91 84 60 81 100 100 100 100 100 100 100 100 100 100 100 86 7 5 30 100 100 100 100 98 100 100 100 100 100 100 100 100
33 51 78 5 6 91 89 82 97 54 37 0 12 100 94 100 99 99 100 100 100 100 100 100 100 100 100 100 100 85 5 88 100 100 100 46 100 95 100 100 100 100 100 100 100
8 87 24 10 5 48 41 98 86 98 14 0 27 97 98 100 100 100 100 100 100 100 100 100 100 100 100 100 100 99 100 100 100 100 100 24 17 100 100 100 100 100 100 100 45
50 17 20 30 65 30 97 60 100 100 98 2 1 100 77 100 100 100 100 100 100 100 100 100 100 100 100 100 100 100 100 100 100 100 100 43 5 52 100 100 100 96 53 66 79
100 21 3 5 5 5 48 100 100 100 98 8 2 100 94 100 100 100 100 100 100 100 100 100 100 100 100 100 100 100 100 100 100 100 100 22 5 0 4 69 100 60 17 14 7
72 8 98 5 3 52 100 96 100 100 85 8 27 66 100 100 100 100 100 100 100 100 100 100 100 100 100 100 100 100 100 100 100 100 100 99 23 5 38 5 4 6 12 5 40
97 95 91 5 0 49 100 97 100 100 45 9 100 58 100 100 100 100 100 100 100 100 100 100 100 100 100 100 100 100 100 100 100 100 100 100 100 97 90 5 5 5 5 5 6
35 100 100 37 35 66 24 5 9 13 36 5 1 75 100 67 100 100 100 100 100 100 100 100 100 100 100 100 96 100 100 100 100 100 100 100 100 100 100 100 100 6 59 19 97
100 100 100 59 5 96 100 96 8 46 23 3 12 100 100 33 100 100 100 100 100 100 100 100 100 100 100 100 100 100 100 100 100 100 100 100 100 100 100 100 100 100 100 100 100
82 100 97 10 75 100 100 100 31 5 8 0 2 100 50 5 100 100 100 100 100 100 100 100 99 100 100 100 100 100 100 100 100 100 99 99 100 100 100 100 100 100 100 100 100
91 100 9 64 30 76 99 47 23 54 6 0 41 71 16 34 100 100 100 100 100 100 100 100 100 100 100 100 100 100 100 100 100 100 100 100 82 100 100 100 100 100 100 100 100
59 100 100 58 89 100 62 58 5 5 8 12 75 100 99 99 100 100 100 100 100 100 100 100 100 100 16 97 100 100 100 100 100 100 100 100 100 100 100 100 100 100 100 100 100
99 100 100 44 100 96 88 91 3 5 8 75 100 100 100 100 100 100 100 100 100 100 100 100 100 100 100 100 94 100 100 100 100 100 100 100 100 100 100 100 100 100 100 100 100
100 29 72 95 100 100 56 5 5 5 6 96 97 98 100 100 100 100 100 100 100 100 100 100 100 100 100 100 100 100 100 100 100 100 100 100 100 100 100 100 100 100 100 100 100
5 5 5 6 22 95 7 5 5 31 95 100 94 100 100 100 100 100 100 100 100 100 100 100 100 100 100 100 100 100 100 100 100 100 100 100 100 100 100 100 100 100 100 100 100
12 3 4 5 5 77 100 47 69 50 96 100 100 100 97 92 70 100 100 100 100 100 100 100 100 100 100 100 100 100 100 100 100 100 100 100 100 100 100 100 99 99 75 55 13
4 7 20 5 6 27 52 100 57 59 100 100 100 100 99 80 100 100 100 100 100 100 100 100 100 99 100 96 97 100 100 100 100 69 100 100 100 100 100 100 100 21 5 32 53
5 5 97 7 6 90 97 20 60 100 100 100 99 34 100 98 100 100 100 100 100 93 100 100 100 100 100 100 100 95 100 100 46 98 100 100 90 90 100 100 74 54 33 5 5
0 1 2 5 10 59 62 65 100 100 100 97 89 29 100 100 100 100 100 99 100 100 100 100 100 100 100 69 37 100 99 58 64 100 100 100 100 99 54 38 5 1 4 4 4
0 1 5 3 18 9 91 100 99 56 22 30 90 89 100 100 100 100 100 100 97 89 100 100 100 100 100 100 100 100 86 46 100 64 100 100 100 96 8 5 5 13 5 5 2
50 2 5 5 4 42 96 100 54 5 5 6 9 64 87 55 92 100 97 91 100 100 100 100 65 100 100 100 100 100 100 100 100 100 99 100 100 25 7 2 5 12 24 75 85
2 49 5 5 16 68 99 95 18 6 5 5 5 47 29 32 72 64 99 100 98 93 94 94 84 100 100 100 100 100 100 88 32 51 99 100 99 5 5 6 52 100 100 25 61
0 6 5 2 100 66 37 28 7 5 7 66 84 100 100 100 100 100 100 99 83 95 100 100 100 100 100 100 100 100 77 68 59 100 99 61 99 55 67 93 100 100 85 38 21
1 23 2 5 7 76 70 6 5 5 5 6 8 8 6 6 5 21 6 8 13 69 100 100 100 100 100 100 100 100 100 100 100 100 100 95 100 100 100 92 51 6 21 4 43
5 71 95 77 6 6 7 5 5 6 5 5 5 5 5 5 5 87 100 94 30 95 100 100 100 100 100 100 100 100 100 100 52 79 78 98 100 100 76 26 5 23 92 99 100
16 66 84 14 0 4 2 5 5 4 2 5 2 10 53 5 34 69 79 28 61 99 100 100 100 100 100 100 100 100 100 100 100 79 98 70 50 100 92 99 33 100 100 100 28
62 98 99 0 0 0 2 3 5 5 5 8 50 100 100 90 89 77 96 100 91 100 100 100 100 100 100 100 100 100 94 44 82 100 85 100 100 99 93 100 100 99 89 86 98